TimeEST,TemperatureF,Dew PointF,Humidity,Sea Level PressureIn,VisibilityMPH,Wind Direction,Wind SpeedMPH,Gust SpeedMPH,PrecipitationIn,Events,Conditions,WindDirDegrees,DateUTC
12:15 AM,17.4,-17.0,21,30.21,10.0,Calm,Calm,-,N/A,,Clear,0,2013-01-23 05:15:00
12:35 AM,17.6,-17.1,21,30.20,10.0,Calm,Calm,-,N/A,,Clear,0,2013-01-23 05:35:00
1:15 AM,17.2,-17.9,20,30.21,10.0,Calm,Calm,-,N/A,,Clear,0,2013-01-23 06:15:00
1:35 AM,18.3,-15.0,22,30.22,10.0,North,3.5,-,N/A,,Clear,360,2013-01-23 06:35:00
1:55 AM,19.8,-9.0,28,30.22,10.0,North,3.5,-,N/A,,Clear,10,2013-01-23 06:55:00
2:15 AM,20.5,-6.9,30,30.23,10.0,North,4.6,-,N/A,,Clear,360,2013-01-23 07:15:00
2:35 AM,20.7,-5.6,31,30.23,10.0,North,4.6,-,N/A,,Clear,10,2013-01-23 07:35:00
2:55 AM,20.7,-4.7,33,30.24,10.0,North,3.5,-,N/A,,Clear,360,2013-01-23 07:55:00
3:15 AM,20.8,-2.7,36,30.24,10.0,North,3.5,-,N/A,,Clear,360,2013-01-23 08:15:00
3:35 AM,20.8,-3.6,34,30.24,10.0,Calm,Calm,-,N/A,,Clear,0,2013-01-23 08:35:00
3:55 AM,20.3,-3.3,35,30.24,10.0,Calm,Calm,-,N/A,,Clear,0,2013-01-23 08:55:00
4:15 AM,20.1,-4.5,34,30.24,10.0,Calm,Calm,-,N/A,,Scattered Clouds,0,2013-01-23 09:15:00
4:35 AM,19.9,-4.7,34,30.24,10.0,North,3.5,-,N/A,,Mostly Cloudy,360,2013-01-23 09:35:00
4:55 AM,19.9,-4.0,35,30.24,10.0,North,3.5,-,N/A,,Mostly Cloudy,360,2013-01-23 09:55:00
5:15 AM,19.8,-3.1,37,30.24,10.0,Calm,Calm,-,N/A,,Mostly Cloudy,0,2013-01-23 10:15:00
5:35 AM,20.1,-2.2,38,30.24,10.0,Calm,Calm,-,N/A,,Mostly Cloudy,0,2013-01-23 10:35:00
5:55 AM,19.9,-1.7,39,30.25,10.0,North,3.5,-,N/A,,Scattered Clouds,350,2013-01-23 10:55:00
6:15 AM,20.1,-0.6,40,30.25,10.0,North,3.5,-,N/A,,Clear,350,2013-01-23 11:15:00
6:35 AM,19.9,-1.5,39,30.25,10.0,North,3.5,-,N/A,,Clear,350,2013-01-23 11:35:00
6:55 AM,19.4,-1.5,40,30.25,10.0,North,4.6,-,N/A,,Clear,360,2013-01-23 11:55:00
7:15 AM,19.9,-0.9,40,30.27,10.0,North,4.6,-,N/A,,Clear,360,2013-01-23 12:15:00
7:35 AM,19.6,-1.5,40,30.27,10.0,Calm,Calm,-,N/A,,Clear,0,2013-01-23 12:35:00
7:55 AM,19.8,-1.3,40,30.27,10.0,Calm,Calm,-,N/A,,Clear,0,2013-01-23 12:55:00
8:15 AM,23.4,2.5,41,30.27,10.0,Calm,Calm,-,N/A,,Clear,0,2013-01-23 13:15:00
8:35 AM,25.9,3.0,38,30.27,10.0,Calm,Calm,-,N/A,,Clear,0,2013-01-23 13:35:00
8:55 AM,27.5,3.7,36,30.27,10.0,NW,3.5,-,N/A,,Clear,320,2013-01-23 13:55:00
9:15 AM,30.0,3.4,32,30.28,10.0,Calm,Calm,-,N/A,,Scattered Clouds,0,2013-01-23 14:15:00
9:35 AM,31.5,5.7,34,30.28,10.0,NW,3.5,-,N/A,,Overcast,310,2013-01-23 14:35:00
10:15 AM,33.3,5.4,31,30.29,10.0,WNW,3.5,-,N/A,,Overcast,290,2013-01-23 15:15:00
10:35 AM,32.7,5.0,31,30.29,10.0,West,3.5,-,N/A,,Overcast,280,2013-01-23 15:35:00
10:55 AM,34.3,6.6,31,30.28,10.0,West,4.6,-,N/A,,Overcast,260,2013-01-23 15:55:00
11:15 AM,34.3,4.8,29,30.27,10.0,West,6.9,-,N/A,,Mostly Cloudy,260,2013-01-23 16:15:00
11:55 AM,38.8,7.2,27,30.24,10.0,NW,4.6,-,N/A,,Overcast,310,2013-01-23 16:55:00
12:15 PM,37.8,7.7,29,30.22,10.0,West,4.6,-,N/A,,Mostly Cloudy,260,2013-01-23 17:15:00
12:35 PM,40.8,10.6,29,30.21,10.0,West,9.2,-,N/A,,Mostly Cloudy,270,2013-01-23 17:35:00
12:55 PM,40.3,6.4,25,30.19,10.0,SW,5.8,-,N/A,,Overcast,220,2013-01-23 17:55:00
1:15 PM,38.1,6.6,27,30.18,10.0,WSW,6.9,-,N/A,,Overcast,240,2013-01-23 18:15:00
1:35 PM,38.3,9.3,30,30.17,10.0,West,6.9,-,N/A,,Overcast,280,2013-01-23 18:35:00
1:55 PM,38.7,10.0,31,30.17,10.0,West,4.6,-,N/A,,Overcast,280,2013-01-23 18:55:00
2:15 PM,38.7,10.0,31,30.15,10.0,West,3.5,-,N/A,,Overcast,270,2013-01-23 19:15:00
2:35 PM,40.8,12.2,31,30.15,10.0,WSW,3.5,-,N/A,,Overcast,250,2013-01-23 19:35:00
2:55 PM,44.4,12.6,28,30.13,10.0,WNW,4.6,-,N/A,,Overcast,290,2013-01-23 19:55:00
3:15 PM,41.9,10.8,28,30.13,10.0,WNW,3.5,-,N/A,,Overcast,300,2013-01-23 20:15:00
3:35 PM,41.7,12.0,30,30.13,10.0,NW,6.9,-,N/A,,Mostly Cloudy,310,2013-01-23 20:35:00
3:55 PM,41.9,12.4,30,30.12,10.0,North,6.9,-,N/A,,Scattered Clouds,350,2013-01-23 20:55:00
4:15 PM,42.3,11.8,29,30.12,10.0,North,5.8,-,N/A,,Scattered Clouds,10,2013-01-23 21:15:00
4:35 PM,41.5,10.6,28,30.12,10.0,NNE,5.8,-,N/A,,Clear,30,2013-01-23 21:35:00
4:55 PM,41.0,11.3,30,30.12,10.0,North,3.5,-,N/A,,Clear,10,2013-01-23 21:55:00
5:15 PM,40.1,9.7,29,30.11,10.0,Calm,Calm,-,N/A,,Clear,0,2013-01-23 22:15:00
5:35 PM,37.0,6.1,28,30.11,10.0,Calm,Calm,-,N/A,,Clear,0,2013-01-23 22:35:00
5:55 PM,34.9,4.1,27,30.10,10.0,Calm,Calm,-,N/A,,Clear,0,2013-01-23 22:55:00
6:15 PM,32.0,1.8,28,30.10,10.0,Calm,Calm,-,N/A,,Clear,0,2013-01-23 23:15:00
6:35 PM,30.9,0.3,27,30.10,10.0,Calm,Calm,-,N/A,,Clear,0,2013-01-23 23:35:00
7:15 PM,30.2,3.4,32,30.09,10.0,Calm,Calm,-,N/A,,Clear,0,2013-01-24 00:15:00
7:35 PM,30.2,7.7,39,30.09,10.0,Calm,Calm,-,N/A,,Clear,0,2013-01-24 00:35:00
7:55 PM,31.1,15.1,52,30.08,10.0,Calm,Calm,-,N/A,,Clear,0,2013-01-24 00:55:00
8:15 PM,30.4,8.1,39,30.07,10.0,Calm,Calm,-,N/A,,Clear,0,2013-01-24 01:15:00
8:35 PM,28.9,12.0,49,30.07,10.0,Calm,Calm,-,N/A,,Clear,0,2013-01-24 01:35:00
8:55 PM,29.1,7.5,40,30.07,10.0,Calm,Calm,-,N/A,,Clear,0,2013-01-24 01:55:00
9:35 PM,27.3,8.8,46,30.05,10.0,Calm,Calm,-,N/A,,Clear,0,2013-01-24 02:35:00
9:55 PM,27.3,10.6,49,30.05,10.0,Calm,Calm,-,N/A,,Clear,0,2013-01-24 02:55:00
10:15 PM,26.6,10.9,52,30.03,10.0,Calm,Calm,-,N/A,,Clear,0,2013-01-24 03:15:00
10:35 PM,26.4,11.5,53,30.02,10.0,Calm,Calm,-,N/A,,Clear,0,2013-01-24 03:35:00
10:55 PM,26.4,8.6,47,30.01,10.0,Calm,Calm,-,N/A,,Clear,0,2013-01-24 03:55:00
11:15 PM,26.6,10.4,51,30.00,10.0,Calm,Calm,-,N/A,,Clear,0,2013-01-24 04:15:00
11:35 PM,26.4,10.8,52,30.00,10.0,Calm,Calm,-,N/A,,Clear,0,2013-01-24 04:35:00
11:55 PM,25.2,8.6,50,29.98,10.0,Calm,Calm,-,N/A,,Clear,0,2013-01-24 04:55:00